This is the latest recevied weather packets stored in our database for station/object K6HFP. If no packets are shown the sender has not sent any weather packets the latest 10 day(s).
| Time | Temp. | Humidity | Pressure | Rain* | Wind** | Luminosity | Snow |
|---|---|---|---|---|---|---|---|
| 1777710478 | 17.78° C | 63% | 1010.4 hPa | 0 mm | - | 0 W/m² | - |
| 1777710174 | 17.78° C | 63% | 1010.6 hPa | 0 mm | - | 0 W/m² | - |
| 1777709871 | 17.78° C | 63% | 1010.3 hPa | 0 mm | - | 0 W/m² | - |
| 1777709569 | 17.78° C | 63% | 1010.4 hPa | 0 mm | - | 0 W/m² | - |
| 1777709267 | 17.22° C | 64% | 1010.7 hPa | 0 mm | - | 0 W/m² | - |
| 1777708964 | 17.22° C | 65% | 1010.3 hPa | 0 mm | - | 0 W/m² | - |
| 1777708661 | 17.22° C | 65% | 1010.3 hPa | 0 mm | - | 0 W/m² | - |
| 1777708359 | 17.22° C | 64% | 1010.5 hPa | 0 mm | - | 0 W/m² | - |
| 1777708056 | 18.33° C | 62% | 1010.6 hPa | 0 mm | - | 0 W/m² | - |
| 1777707754 | 18.33° C | 61% | 1010.5 hPa | 0 mm | - | 0 W/m² | - |
| 1777707449 | 18.33° C | 60% | 1010.7 hPa | 0 mm | - | 0 W/m² | - |
| 1777707146 | 18.89° C | 59% | 1010.7 hPa | 0 mm | - | 0 W/m² | - |
| 1777706844 | 18.89° C | 59% | 1010.9 hPa | 0 mm | - | 0 W/m² | - |
| 1777706541 | 18.89° C | 60% | 1011 hPa | 0 mm | - | 0 W/m² | - |
| 1777706239 | 18.33° C | 61% | 1010.6 hPa | 0 mm | - | 0 W/m² | - |
| 1777705936 | 17.78° C | 63% | 1010.9 hPa | 0 mm | - | 0 W/m² | - |
| 1777705635 | 18.33° C | 62% | 1010.7 hPa | 0 mm | - | 0 W/m² | - |
| 1777705332 | 18.89° C | 61% | 1010.6 hPa | 0 mm | - | 0 W/m² | - |
| 1777705030 | 18.89° C | 62% | 1010.5 hPa | 0 mm | - | 0 W/m² | - |
| 1777704728 | 18.89° C | 61% | 1010.6 hPa | 0 mm | - | 0 W/m² | - |
| 1777704426 | 18.89° C | 59% | 1010.8 hPa | 0 mm | - | 0 W/m² | - |
| 1777704123 | 19.44° C | 58% | 1010.8 hPa | 0 mm | - | 0 W/m² | - |
| 1777703821 | 20° C | 57% | 1010.8 hPa | 0 mm | - | 0 W/m² | - |
| 1777703518 | 20° C | 56% | 1010.6 hPa | 0 mm | - | 0 W/m² | - |
| 1777703215 | 19.44° C | 58% | 1010.5 hPa | 0 mm | - | 0 W/m² | - |
* Rain latest hour (hover to see other rain measurements)
** Current wind speed in m/s (hover to see current wind gust speed)